When you browse on this site, cookies collect data to enhance your experience and personalize the content and advertising you see.
Visit our Privacy Policy to learn more. By continuing to use the site, you agree to this use of cookies and data.
  • In Hungary
  • List of Countries
  • For 7 days
  • Water Temperature
  • Satellite Maps
  • Weather Map
  • News
  • Weather Widgets
  • user-avatar
    Login

    Hourly Weather Katrineholm

    Today, 10 December, Monday

    Time Temperature Precipitation Wind Pressure Humidity
    00:00 -1°C° 0 mm 3 mps 736 mmHg 80%
    01:00 -1°C° 0 mm 3 mps 737 mmHg 80%
    02:00 -1°C° 0 mm 2 mps 737 mmHg 80%
    03:00 -1°C° 0 mm 2 mps 737 mmHg 79%
    04:00 -1°C° 0 mm 2 mps 737 mmHg 78%
    05:00 -1°C° 0 mm 2 mps 738 mmHg 78%
    06:00 -1°C° 0 mm 2 mps 738 mmHg 77%
    07:00 -1°C° 0 mm 2 mps 738 mmHg 77%
    08:00 -1°C° 0 mm 2 mps 739 mmHg 77%
    09:00 -1°C° 0 mm 2 mps 739 mmHg 78%
    10:00 -1°C° 0 mm 2 mps 739 mmHg 78%
    11:00 -1°C° 0 mm 2 mps 740 mmHg 79%
    12:00 +1°C° 0 mm 2 mps 740 mmHg 79%
    13:00 +1°C° 0 mm 2 mps 741 mmHg 79%
    14:00 +1°C° 0 mm 2 mps 741 mmHg 81%
    15:00 -1°C° 0 mm 2 mps 742 mmHg 83%
    16:00 -1°C° 0 mm 2 mps 743 mmHg 85%
    17:00 -1°C° 0 mm 2 mps 743 mmHg 86%
    18:00 -1°C° 0 mm 2 mps 744 mmHg 86%
    19:00 -2°C° 0 mm 2 mps 745 mmHg 86%
    20:00 -1°C° 0.2 mm 2 mps 746 mmHg 87%
    21:00 -1°C° 0.2 mm 2 mps 747 mmHg 87%
    22:00 0°C° 0.2 mm 3 mps 748 mmHg 88%
    23:00 0°C° 0.2 mm 3 mps 748 mmHg 89%

    Tomorrow, 11 December, Tuesday

    Time Temperature Precipitation Wind Pressure Humidity
    00:00 +1°C° 0.2 mm 3 mps 749 mmHg 89%
    01:00 +1°C° 0.2 mm 3 mps 750 mmHg 89%
    02:00 0°C° 0.3 mm 4 mps 751 mmHg 89%
    03:00 0°C° 0.3 mm 4 mps 751 mmHg 89%
    04:00 +1°C° 0.3 mm 4 mps 752 mmHg 88%
    05:00 +1°C° 0.3 mm 4 mps 753 mmHg 88%
    06:00 +1°C° 0.3 mm 4 mps 753 mmHg 88%
    07:00 +1°C° 0.3 mm 4 mps 754 mmHg 88%
    08:00 +1°C° 0.1 mm 4 mps 755 mmHg 88%
    09:00 +1°C° 0.1 mm 4 mps 756 mmHg 87%
    10:00 +1°C° 0.1 mm 4 mps 757 mmHg 87%
    11:00 +1°C° 0 mm 4 mps 757 mmHg 86%
    12:00 +1°C° 0 mm 4 mps 758 mmHg 86%
    13:00 +1°C° 0 mm 4 mps 758 mmHg 85%
    14:00 0°C° 0 mm 4 mps 759 mmHg 85%
    15:00 0°C° 0 mm 4 mps 759 mmHg 85%
    16:00 0°C° 0 mm 4 mps 760 mmHg 86%
    17:00 0°C° 0 mm 4 mps 761 mmHg 86%
    18:00 0°C° 0 mm 4 mps 761 mmHg 86%
    19:00 0°C° 0 mm 4 mps 762 mmHg 86%
    20:00 +1°C° 0 mm 3 mps 762 mmHg 87%
    21:00 0°C° 0 mm 3 mps 762 mmHg 88%
    22:00 0°C° 0 mm 3 mps 763 mmHg 89%
    23:00 0°C° 0 mm 3 mps 763 mmHg 89%

    Day after tomorrow, 12 December, Wednesday

    Time Temperature Precipitation Wind Pressure Humidity
    00:00 0°C° 0 mm 3 mps 764 mmHg 89%
    01:00 0°C° 0 mm 3 mps 764 mmHg 89%
    02:00 0°C° 0.1 mm 3 mps 764 mmHg 88%
    03:00 -1°C° 0.1 mm 4 mps 764 mmHg 88%
    04:00 -1°C° 0.1 mm 4 mps 765 mmHg 87%
    05:00 0°C° 0.1 mm 3 mps 765 mmHg 87%
    06:00 0°C° 0.1 mm 3 mps 765 mmHg 87%
    07:00 0°C° 0.1 mm 3 mps 766 mmHg 86%
    08:00 0°C° 0.1 mm 3 mps 766 mmHg 86%
    09:00 0°C° 0.1 mm 3 mps 766 mmHg 86%
    10:00 0°C° 0.1 mm 3 mps 767 mmHg 85%
    11:00 0°C° 0 mm 3 mps 767 mmHg 83%
    12:00 0°C° 0 mm 3 mps 767 mmHg 81%
    13:00 0°C° 0 mm 3 mps 767 mmHg 78%
    14:00 -1°C° 0 mm 3 mps 767 mmHg 79%
    15:00 -1°C° 0 mm 3 mps 767 mmHg 80%
    16:00 -1°C° 0 mm 3 mps 768 mmHg 81%
    17:00 -2°C° 0 mm 3 mps 768 mmHg 82%
    18:00 -2°C° 0 mm 3 mps 768 mmHg 84%
    19:00 -2°C° 0 mm 3 mps 768 mmHg 85%
    20:00 -4°C° 0 mm 3 mps 768 mmHg 85%
    21:00 -4°C° 0 mm 3 mps 768 mmHg 86%
    22:00 -4°C° 0 mm 3 mps 769 mmHg 86%
    23:00 -4°C° 0 mm 3 mps 769 mmHg 86%

    13 December, Thursday

    Time Temperature Precipitation Wind Pressure Humidity
    00:00 -4°C° 0 mm 3 mps 769 mmHg 86%
    01:00 -4°C° 0 mm 3 mps 769 mmHg 86%
    02:00 -4°C° 0 mm 3 mps 768 mmHg 86%
    03:00 -4°C° 0 mm 3 mps 768 mmHg 86%
    04:00 -4°C° 0 mm 3 mps 768 mmHg 86%
    05:00 -4°C° 0 mm 3 mps 768 mmHg 85%
    06:00 -2°C° 0 mm 3 mps 768 mmHg 85%
    07:00 -2°C° 0 mm 3 mps 768 mmHg 85%
    08:00 -2°C° 0 mm 3 mps 768 mmHg 84%
    09:00 -2°C° 0 mm 3 mps 768 mmHg 84%
    10:00 -3°C° 0 mm 4 mps 768 mmHg 83%
    11:00 -3°C° 0 mm 4 mps 768 mmHg 82%
    12:00 -2°C° 0 mm 3 mps 767 mmHg 81%
    13:00 -2°C° 0 mm 3 mps 767 mmHg 80%
    14:00 -2°C° 0 mm 3 mps 767 mmHg 80%
    15:00 -2°C° 0 mm 3 mps 767 mmHg 81%
    16:00 -4°C° 0 mm 3 mps 766 mmHg 82%
    17:00 -4°C° 0 mm 3 mps 766 mmHg 82%
    18:00 -4°C° 0 mm 3 mps 766 mmHg 81%
    19:00 -4°C° 0 mm 4 mps 766 mmHg 80%
    20:00 -4°C° 0 mm 4 mps 766 mmHg 79%
    21:00 -4°C° 0 mm 4 mps 766 mmHg 79%
    22:00 -4°C° 0 mm 4 mps 766 mmHg 78%
    23:00 -4°C° 0.1 mm 4 mps 766 mmHg 79%

    14 December, Friday

    Time Temperature Precipitation Wind Pressure Humidity
    00:00 -3°C° 0.1 mm 4 mps 765 mmHg 80%
    01:00 -3°C° 0.1 mm 4 mps 765 mmHg 80%
    02:00 -3°C° 0.1 mm 4 mps 765 mmHg 82%
    03:00 -3°C° 0.1 mm 4 mps 765 mmHg 83%
    04:00 -3°C° 0.1 mm 4 mps 765 mmHg 84%
    05:00 -2°C° 0.1 mm 3 mps 765 mmHg 85%
    06:00 -2°C° 0.1 mm 3 mps 764 mmHg 86%
    07:00 -2°C° 0.1 mm 3 mps 764 mmHg 86%
    08:00 -2°C° 0.1 mm 3 mps 765 mmHg 87%
    09:00 -1°C° 0.1 mm 3 mps 765 mmHg 87%
    10:00 -1°C° 0.1 mm 3 mps 765 mmHg 87%
    11:00 -1°C° 0.1 mm 3 mps 765 mmHg 87%
    12:00 -1°C° 0.1 mm 2 mps 765 mmHg 86%
    13:00 -1°C° 0.1 mm 2 mps 765 mmHg 86%
    14:00 -1°C° 0 mm 2 mps 765 mmHg 88%
    15:00 -1°C° 0 mm 2 mps 765 mmHg 90%
    16:00 -1°C° 0 mm 2 mps 765 mmHg 91%
    17:00 -1°C° 0.1 mm 2 mps 765 mmHg 92%
    18:00 -1°C° 0.1 mm 2 mps 765 mmHg 93%
    19:00 -1°C° 0.1 mm 2 mps 766 mmHg 93%
    20:00 -1°C° 0.1 mm 2 mps 766 mmHg 93%
    21:00 -1°C° 0.1 mm 2 mps 766 mmHg 93%
    22:00 -1°C° 0.1 mm 2 mps 766 mmHg 93%
    23:00 -1°C° 0 mm 2 mps 766 mmHg 94%

    15 December, Saturday

    Time Temperature Precipitation Wind Pressure Humidity
    00:00 -2°C° 0 mm 2 mps 766 mmHg 94%
    01:00 -2°C° 0 mm 2 mps 766 mmHg 95%
    02:00 -2°C° 0 mm 2 mps 766 mmHg 95%
    03:00 0°C° 0 mm 1 mps 766 mmHg 95%
    04:00 0°C° 0 mm 1 mps 766 mmHg 95%
    05:00 0°C° 0 mm 1 mps 767 mmHg 95%
    06:00 0°C° 0 mm 1 mps 767 mmHg 95%
    07:00 0°C° 0 mm 1 mps 767 mmHg 95%
    08:00 0°C° 0 mm 1 mps 767 mmHg 95%
    09:00 0°C° 0 mm 1 mps 767 mmHg 95%
    10:00 0°C° 0 mm 1 mps 767 mmHg 95%
    11:00 +1°C° 0 mm 1 mps 767 mmHg 94%
    12:00 +1°C° 0 mm 1 mps 767 mmHg 93%
    13:00 +1°C° 0 mm 1 mps 767 mmHg 92%
    14:00 +1°C° 0 mm 1 mps 767 mmHg 92%
    15:00 +1°C° 0 mm 1 mps 767 mmHg 92%
    16:00 +1°C° 0 mm 1 mps 766 mmHg 93%
    17:00 0°C° 0 mm 1 mps 766 mmHg 92%
    18:00 0°C° 0 mm 1 mps 766 mmHg 91%
    19:00 0°C° 0 mm 1 mps 766 mmHg 90%
    20:00 0°C° 0 mm 1 mps 766 mmHg 90%
    21:00 -2°C° 0 mm 2 mps 765 mmHg 90%
    22:00 -3°C° 0 mm 2 mps 765 mmHg 89%
    23:00 -3°C° 0 mm 2 mps 765 mmHg 90%
    Show more